[Iaude] MPEC K223: 2020 KS6 [a=2.55,e=0.63,i=49.1,H=22.7]

mpec at marsden.cfa.harvard.edu mpec at marsden.cfa.harvard.edu
Sat May 30 07:53:04 EDT 2020


M.P.E.C. 2020-K223                                 Issued 2020 May 30, 11:51 UT

     The Minor Planet Electronic Circulars contain information on unusual
         minor planets and routine data on comets.  They are published
    on behalf of Division F of the International Astronomical Union by the
          Minor Planet Center, Smithsonian Astrophysical Observatory,
                          Cambridge, MA 02138, U.S.A.

             Prepared using the Tamkin Foundation Computer Network

                              MPC at CFA.HARVARD.EDU
            URL https://www.minorplanetcenter.net/    ISSN 1523-6714

                                    2020 KS6                                    


Observations:
     K20K06S* C2020 05 28.28475 15 37 57.41 +58 24 40.2          20.8 GVEK223G96
     K20K06S  C2020 05 28.28999 15 37 52.01 +58 23 18.5          21.0 GVEK223G96
     K20K06S  C2020 05 28.29522 15 37 46.71 +58 21 57.0          20.9 GVEK223G96
     K20K06S  C2020 05 28.30047 15 37 41.32 +58 20 36.3          19.7 GVEK223G96
     K20K06S  C2020 05 28.43270 15 35 27.69 +57 45 31.0          20.8 GVEK223G96
     K20K06S  C2020 05 28.43311 15 35 27.25 +57 45 24.4          20.8 GVEK223G96
     K20K06S  C2020 05 28.43352 15 35 26.86 +57 45 17.9          20.8 GVEK223G96
     K20K06S KC2020 05 28.91731515 27 54.02 +55 30 38.0          20.8 GVEK223J95
     K20K06S KC2020 05 28.92546115 27 46.14 +55 28 16.5          20.1 GVEK223J95
     K20K06S KC2020 05 28.93482315 27 37.14 +55 25 32.8          20.3 GVEK223J95
     K20K06S KC2020 05 28.94435015 27 28.02 +55 22 45.7          20.8 GVEK223J95
     K20K06S HC2020 05 28.96751 15 27 05.04 +55 16 04.1                VEK223204
     K20K06S KC2020 05 28.98330 15 26 49.95 +55 11 25.7                VEK223204
     K20K06S KC2020 05 28.99796 15 26 35.97 +55 07 05.2          20.6 GVEK223204
     K20K06S KC2020 05 29.05611615 25 41.62 +54 49 48.1          20.2 GUEK223I93
     K20K06S KC2020 05 29.06371715 25 34.42 +54 47 30.6          20.5 GUEK223I93
     K20K06S KC2020 05 29.07340115 25 25.29 +54 44 35.8          20.5 GUEK223I93
     K20K06S KC2020 05 29.17833 15 23 54.62 +54 13 09.7          20.8 GVEK223H36
     K20K06S KC2020 05 29.19702 15 23 37.20 +54 07 28.3          20.9 GVEK223H36
     K20K06S KC2020 05 29.20636 15 23 28.50 +54 04 36.8          20.8 GVEK223H36
     K20K06S  C2020 05 29.28051 15 22 21.23 +53 41 51.6          20.7 GVEK223654
     K20K06S  C2020 05 29.33888 15 21 26.86 +53 23 36.9          20.4 GVEK223654
     K20K06S  C2020 05 29.38201 15 20 47.07 +53 09 57.5          20.8 GVEK223654
     K20K06S  C2020 05 29.45097115 19 46.924+52 48 21.77         20.4 GVEK223F51
     K20K06S  C2020 05 29.46006415 19 38.590+52 45 26.82         20.5 GVEK223F51
     K20K06S KC2020 05 29.92562315 13 00.11 +50 10 04.7          20.6 GVEK223L01
     K20K06S KC2020 05 29.92772615 12 58.38 +50 09 21.8          20.4 GVEK223L01
     K20K06S KC2020 05 29.93076115 12 55.69 +50 08 18.5          20.5 GVEK223L01
     K20K06S KC2020 05 29.95921715 12 32.22 +49 58 18.9          20.1 GVEK223J95
     K20K06S KC2020 05 29.96441215 12 27.77 +49 56 29.6          20.7 GVEK223J95
     K20K06S KC2020 05 29.96915915 12 23.58 +49 54 50.6          20.3 GVEK223J95
     K20K06S KC2020 05 29.98123115 12 11.99 +49 50 44.3                VEK223104
     K20K06S KC2020 05 29.99165615 12 02.97 +49 47 04.1          21.2 GVEK223104
     K20K06S KC2020 05 30.00206715 11 54.08 +49 43 24.2          21.1 GVEK223104
     K20K06S KC2020 05 30.15020 15 09 55.84 +48 51 00.0          21.0 GVEK223734
     K20K06S KC2020 05 30.15594 15 09 50.85 +48 48 57.5          20.2 GVEK223734
     K20K06S KC2020 05 30.16165 15 09 46.02 +48 46 55.1          21.1 GVEK223734
     K20K06S KC2020 05 30.16744 15 09 41.15 +48 44 48.5          20.8 GVEK223734
     K20K06S KC2020 05 30.17395515 09 34.84 +48 42 30.5          20.4 VuEK223H21
     K20K06S KC2020 05 30.17698215 09 32.25 +48 41 25.1          20.4 VuEK223H21
     K20K06S KC2020 05 30.18031315 09 29.40 +48 40 13.2          20.5 VuEK223H21
     K20K06S KC2020 05 30.18369515 09 26.49 +48 39 00.1          20.2 VuEK223H21
     K20K06S  C2020 05 30.30654 15 07 44.24 +47 54 19.7          20.4 GVEK223I52
     K20K06S  C2020 05 30.30949 15 07 41.83 +47 53 14.6          20.2 GVEK223I52
     K20K06S  C2020 05 30.31245 15 07 39.46 +47 52 09.3          20.6 GVEK223I52
     K20K06S  C2020 05 30.31540 15 07 36.64 +47 51 03.4          21.0 GVEK223I52

Observer details:
104 San Marcello Pistoiese.  Observers P. Bacci, M. Maestripieri.  Measurers
    P. Bacci, L. Tesi, G. Fagioli.  0.60-m reflector + CCD.
204 Schiaparelli Observatory.  Observer L. Buzzi.  0.84-m f/3.5 reflector +
    CCD.
654 Table Mountain Observatory, Wrightwood-PHMC.  Observers P. Choi, N. Saini,
    C. Zhai, R. Trahan, M. Shao.
734 Farpoint Observatory, Eskridge.  Observers G. Hug, D. Cromer, D. Goodin.
    Measurer D. Cromer.  0.7-m reflector + CCD.
F51 Pan-STARRS 1, Haleakala.  Observers J. Bulger, K. Chambers, T. Lowe, A.
    Schultz, M. Willman.  Measurers S. Chastel, M. Huber, Y. Ramanjooloo, R.
    Wainscoat, R. Weryk.  1.8-m Ritchey-Chretien + CCD.
G96 Mt. Lemmon Survey.  Observer K. W. Wierzchos.  Measurers E. J.
    Christensen, G. A. Farneth, D. C. Fuls, A. R. Gibbs, A. D. Grauer, H.
    Groeller, R. A. Kowalski, S. M. Larson, G. J. Leonard, T. A. Pruyne, D.
    Rankin, R. L. Seaman, F. C. Shelly, K. W. Wierzchos.  1.5-m reflector +
    10K CCD.
H21 Astronomical Research Observatory, Westfield.  Observer R. Holmes.
    Measurers S. Foglia, L. Buzzi, T. Linder, R. Holmes.  0.76-m f/3.0
    astrograph + CCD.
H36 Sandlot Observatory, Scranton.  Observer G. Hug.  0.56-m reflector + CCD.
I52 Steward Observatory, Mt. Lemmon Station.  Observer R. A. Kowalski.
    Measurers E. J. Christensen, G. A. Farneth, D. C. Fuls, A. R. Gibbs, A. D.
    Grauer, H. Groeller, R. A. Kowalski, S. M. Larson, G. J. Leonard, T. A.
    Pruyne, D. Rankin, R. L. Seaman, F. C. Shelly, K. W. Wierzchos.  1.0-m
    reflector + CCD.
I93 St Pardon de Conques.  Observer F. Losse.  0.40-m f/3.7 reflector + CCD.
J95 Great Shefford.  Observer P. Birtwhistle.  0.41-m f/6.3 Schmidt-Cassegrain
    + CCD.
L01 Visnjan Observatory, Tican.  Observer K. Korlevic.  1.0-m f/2.9 reflector
    + CCD.

Orbital elements:
2020 KS6                                                 Earth MOID = 0.0852 AU
Epoch 2020 May 31.0 TT = JDT 2459000.5                  Veres
M   8.32864              (2000.0)            P               Q
n   0.24150182     Peri.  129.52659     -0.67884855     +0.15422316
a   2.5538131      Node    71.75463     -0.64143067     -0.60042501
e   0.6269200      Incl.   49.10434     +0.35739521     -0.78466874
P   4.08           H   22.7           G   0.15           U   8
Residuals in seconds of arc
200528 G96  0.1-  0.3-    200529 I93  0.0   0.1+    200529 104  0.4-  0.0
200528 G96  0.4-  0.5-    200529 H36  1.3-  0.0     200530 104  0.5+  0.0
200528 G96  0.1+  0.5-    200529 H36  0.0   0.2-    200530 734  0.2-  0.7-
200528 G96  0.0   0.8+    200529 H36  0.6+  0.6-    200530 734  1.0-  0.1-
200528 G96  0.1-  0.2-    200529 654  0.2+  0.1+    200530 734  0.5-  0.2+
200528 G96  0.3-  0.2-    200529 654  0.0   0.1-    200530 734  0.2+  1.9-
200528 G96  0.2-  0.1-    200529 654  0.0   0.1-    200530 H21  0.3+  0.3+
200528 J95  1.0+  0.2+    200529 F51  0.3-  0.4-    200530 H21  0.2+  0.3+
200528 J95  0.2+  0.5+    200529 F51  0.0   0.3+    200530 H21  0.2+  0.4+
200528 J95  0.2-  0.1+    200529 L01  0.5-  0.4-    200530 H21  0.0   0.4+
200528 J95  0.4-  0.4-    200529 L01  0.5+  0.4+    200530 I52  0.0   0.1-
200528 204  0.0   0.6-    200529 L01  0.1+  0.2+    200530 I52  0.8+  0.3+
200528 204  0.2-  0.3+    200529 J95  0.1-  0.3+    200530 I52  2.1+  0.6+
200528 204  0.3-  0.1+    200529 J95  0.4+  0.4-    200530 I52  1.3-  0.3+
200529 I93  0.5+  0.2+    200529 J95  0.4-  0.1-
200529 I93  0.2+  0.2-    200529 104  0.4-  0.5+

Ephemeris:
2020 KS6                 a,e,i = 2.55, 0.63, 49                  q = 0.9528
Date    TT    R. A. (2000) Decl.     Delta      r    Elong.  Phase     V
2020 04 30    22 20 48.9 +73 54 52   0.5569  0.9540    68.3    78.8    24.1
...
2020 05 15    20 07 40.6 +76 22 38   0.3374  0.9867    76.3    84.3    23.3
...
2020 05 23    17 23 45.9 +72 22 50   0.2180  1.0207    86.0    81.7    22.3
...
2020 05 29    15 26 36.9 +55 06 36   0.1401  1.0524   102.3    70.2    21.0
2020 05 30    15 11 59.0 +49 44 23   0.1301  1.0581   106.5    66.7    20.7
2020 05 31    14 58 44.8 +43 25 31   0.1217  1.0640   111.2    62.7    20.5
...
2020 06 06    14 02 45.3 -05 18 02   0.1192  1.1016   134.6    41.0    19.9
...
2020 06 14    13 26 20.6 -39 54 10   0.2157  1.1572   126.6    44.8    21.4
...
2020 06 29    13 07 51.6 -55 41 55   0.4584  1.2734   113.9    46.9    23.3

M. P. C. Staff               (C) Copyright 2020 MPC           M.P.E.C. 2020-K223




More information about the Iaude mailing list